Location: ???????
(56.2167°N, 38.0500°E)
Time: 06:06:36
(UTC+00:00)

Cosmos 1470 - Pass Details

Date: 19 May 2025
Orbit: 455 x 466 km, 82.5° (Epoch: 15 June)

Event Time Altitude Azimuth Distance (km) Brightness Sun altitude
Rises 21:28:10 0° 340° (NNW) 2,520 7.6 -13.8°
Reaches altitude 10° 21:30:25 10° 330° (NNW) 1,639 6.2 -13.8°
Maximum altitude 21:33:33 29° 269° (W) 887 3.8 -13.8°
Enters shadow 21:35:22 19° 222° (SW) 1,189 4.1 -13.8°
